FW8877 Weather Reports


time (UTC)temp
F
wind
direction
speed
knots
gust
knots
rain 1hr
in
rain 24hr
in
rain mn
in
humidity
%
barometer
mb
20260502194552 74 278 0.9 2.6 0.00 0.00 0.00 19 1019.3
20260502193044 73 191 0.9 5.2 0.00 0.00 0.00 23 1019.5
20260502191546 74 205 1.7 6.1 0.00 0.00 0.00 18 1019.6
20260502190049 72 136 0.9 5.2 0.00 0.00 0.00 21 1019.7
20260502184547 72 231 0.0 2.6 0.00 0.00 0.00 20 1019.9
20260502183047 72 292 0.0 5.2 0.00 0.00 0.00 22 1020.1
20260502181550 71 103 1.7 4.3 0.00 0.00 0.00 24 1020.1
20260502163104 64 338 0.0 0.9 0.00 0.00 0.00 41 1020.8
20260502161558 62 197 0.0 1.7 0.00 0.00 0.00 41 1020.8
20260502151549 61 356 0.0 3.5 0.00 0.00 0.00 33 1021.0
20260502123110 39 0 0.0 0.0 0.00 0.00 0.00 62 1020.7
20260502121555 40 0 0.0 0.0 0.00 0.00 0.00 60 1020.8
20260502114547 38 0 0.0 0.0 0.00 0.00 0.00 62 1020.7
20260502113049 38 0 0.0 0.0 0.00 0.00 0.00 63 1020.8
20260502111549 38 0 0.0 0.0 0.00 0.00 0.00 64 1020.8
20260502110043 39 0 0.0 0.0 0.00 0.00 0.00 61 1020.7
20260502104548 39 0 0.0 0.0 0.00 0.00 0.00 61 1020.8
20260502103044 38 0 0.0 0.0 0.00 0.00 0.00 62 1020.8
20260502101549 38 0 0.0 0.0 0.00 0.00 0.00 62 1020.7
20260502080105 43 0 0.0 0.0 0.00 0.00 0.00 52 1020.5
20260502064552 45 0 0.0 0.0 0.00 0.00 0.00 49 1020.4
20260502063050 45 0 0.0 0.0 0.00 0.00 0.00 48 1020.3
20260502061545 47 0 0.0 0.0 0.00 0.00 0.00 46 1020.2
20260502060053 48 0 0.0 0.0 0.00 0.00 0.00 42 1020.3
20260502054549 49 0 0.0 0.0 0.00 0.00 0.00 40 1020.4
20260502053051 50 0 0.0 0.0 0.00 0.00 0.00 40 1020.4
20260502051557 50 0 0.0 0.0 0.00 0.00 0.00 38 1020.3
20260502050046 50 0 0.0 0.0 0.00 0.00 0.00 38 1020.5
20260502044548 49 0 0.0 0.0 0.00 0.00 0.00 40 1020.5
20260502043050 47 0 0.0 0.0 0.00 0.00 0.00 44 1020.5
20260502041546 47 0 0.0 0.0 0.00 0.00 0.00 42 1020.5
20260502040046 49 0 0.0 0.0 0.00 0.00 0.00 40 1020.4
20260502034549 51 0 0.0 0.0 0.00 0.00 0.00 36 1020.3
20260502033051 51 0 0.0 0.0 0.00 0.00 0.00 35 1020.2
20260502031549 52 0 0.0 0.9 0.00 0.00 0.00 34 1020.2
20260502030049 52 0 0.0 0.0 0.00 0.00 0.00 34 1020.0
20260502024549 53 0 0.0 0.0 0.00 0.00 0.00 34 1019.9
20260502023050 54 0 0.0 0.0 0.00 0.00 0.00 30 1019.9
20260502021550 56 0 0.0 0.0 0.00 0.00 0.00 26 1019.8
20260502020049 59 0 0.0 0.0 0.00 0.00 0.00 24 1019.8
20260502014544 61 0 0.0 0.9 0.00 0.00 0.00 23 1019.8
20260502013051 62 311 0.0 1.7 0.00 0.00 0.00 22 1019.7
20260502011548 63 0 0.0 1.7 0.00 0.00 0.00 22 1019.7
20260502010048 64 0 0.0 1.7 0.00 0.00 0.00 22 1019.8
20260502004547 64 0 0.0 1.7 0.00 0.00 0.00 22 1019.8
20260502003050 65 295 0.0 2.6 0.00 0.00 0.00 22 1019.8
20260502001554 65 202 0.0 2.6 0.00 0.00 0.00 22 1019.8
20260502000057 66 290 0.0 3.5 0.00 0.00 0.00 23 1019.8
20260501234546 66 0 0.0 1.7 0.00 0.00 0.00 24 1019.8
20260501233044 66 302 0.0 2.6 0.00 0.00 0.00 24 1019.9
20260501231543 68 241 0.0 3.5 0.00 0.00 0.00 24 1019.8
20260501230042 68 0 0.0 2.6 0.00 0.00 0.00 24 1020.0
20260501224550 67 206 0.0 2.6 0.00 0.00 0.00 24 1020.0
20260501223049 68 161 0.0 2.6 0.00 0.00 0.00 27 1020.2
20260501221553 68 329 0.9 2.6 0.00 0.00 0.00 26 1020.3
20260501220058 67 0 0.9 2.6 0.00 0.00 0.00 26 1020.5
20260501214553 68 0 0.0 1.7 0.00 0.00 0.00 27 1020.7
20260501213055 68 203 0.0 1.7 0.00 0.00 0.00 28 1020.9
20260501211546 68 281 0.9 2.6 0.00 0.00 0.00 28 1020.9
20260501210050 67 116 0.9 2.6 0.00 0.00 0.00 26 1021.1
20260501204541 67 155 0.0 3.5 0.00 0.00 0.00 31 1021.1
20260501203055 67 314 0.0 2.6 0.00 0.00 0.00 31 1021.3
20260501201557 67 335 0.0 2.6 0.00 0.00 0.00 31 1021.3
20260501200045 66 88 0.9 3.5 0.00 0.00 0.00 30 1021.4